Location: Izdebno
(52.6670°N, 16.2170°E)
Time: 09:59:18
(UTC+01:00)

Transit 2A - Pass Details

Date: 07 February 2023
Orbit: 591 x 964 km, 66.7° (Epoch: 21 March)

Event Time Altitude Azimuth Distance (km) Brightness Sun altitude
Rises 15:07:10 0° 171° (S) 3,016 9.6 12.0°
Reaches altitude 10° 15:09:53 10° 154° (SSE) 2,168 8.7 11.7°
Maximum altitude 15:13:29 20° 107° (ESE) 1,657 7.6 11.3°
Drops below altitude 10° 15:17:21 10° 61° (ENE) 2,360 8.0 10.9°
Sets 15:20:27 0° 46° (NE) 3,371 8.7 10.6°
